Abbotsford, British Columbia

8:13 AM PST on February 06, 2016 (GMT -0800)
Abbotsford

Weather History for CYXX - August, 2013

Change the Weather History Date:

Friday, August 23, 2013

  Actual Average Record
Temperature  
Mean Temperature 66 °F -  
Max Temperature 74 °F 70 °F 86 °F (1996)
Min Temperature 58 °F 48 °F 48 °F (2003)
Cooling Degree Days 1    
Growing Degree Days 16 (Base 50)    
Moisture  
Dew Point 56 °F    
Average Humidity 69    
Maximum Humidity 82    
Minimum Humidity 53    
Precipitation  
Precipitation 0.00 in 0.10 in - ()
Sea Level Pressure  
Sea Level Pressure 29.85 in    
Wind  
Wind Speed 5 mph ()    
Max Wind Speed 17 mph    
Max Gust Speed 29 mph    
Visibility 13.6 miles    
Events Rain    
Averages and records for this station are not official NWS values.
T = Trace of Precipitation, MM = Missing Value Source: Averaged Metar Reports

Daily Weather History Graph

Daily Weather History Graph

Search for Another Location

Airport or City:

Trip Planner

Search our weather history database for the weather conditions in past years. The results will help you decide how hot, cold, wet, or windy it might be!

Date:

Astronomy

Aug. 23, 2013 Rise Set
Actual Time 6:13 AM PDT 8:09 PM PDT
Civil Twilight 5:39 AM PDT 8:43 PM PDT
Nautical Twilight 4:57 AM PDT 9:24 PM PDT
Astronomical Twilight 4:10 AM PDT 10:11 PM PDT
Moon 9:07 PM PDT (8/23) 9:36 AM PDT (8/23)
Length of Visible Light 15h 03m
Length of Day
13h 55m
Waning Gibbous, 91% of the Moon is Illuminated
Aug 23
Waning Gibbous
Aug 28
Last Quarter
Sep 5
New
Sep 12
First Quarter
Sep 19
Full

Hourly Weather History & Observations

Time (PDT) Temp. Dew Point Humidity Pressure Visibility Wind Dir Wind Speed Gust Speed Precip Events Conditions
12:00 AM 64.4 °F 53.6 °F 68% 29.80 in 15.0 mi NNW 4.6 mph - N/A   Mostly Cloudy
1:00 AM 60.8 °F 55.4 °F 82% 29.81 in 15.0 mi Calm Calm - N/A   Mostly Cloudy
2:00 AM 59.0 °F 53.6 °F 82% 29.81 in 15.0 mi Calm Calm - N/A   Mostly Cloudy
3:00 AM 60.8 °F 55.4 °F 82% 29.82 in 15.0 mi North 2.3 mph - N/A   Mostly Cloudy
4:00 AM 60.8 °F 55.4 °F 82% 29.83 in 15.0 mi WNW 3.5 mph - N/A   Mostly Cloudy
5:00 AM 61 °F 55 °F 74% 29.83 in 15 mi NNE 1.2 mph - -   Overcast
5:00 AM 60.8 °F 55.4 °F 82% 29.83 in 15.0 mi Calm Calm - N/A   Overcast
6:00 AM 62.6 °F 53.6 °F 72% 29.83 in 30.0 mi Calm Calm - N/A   Overcast
7:00 AM 62.6 °F 53.6 °F 72% 29.84 in 30.0 mi WNW 3.5 mph - N/A   Mostly Cloudy
8:00 AM 62.6 °F 55.4 °F 77% 29.84 in 30.0 mi West 4.6 mph - N/A   Mostly Cloudy
9:00 AM 66.2 °F 57.2 °F 73% 29.86 in 30.0 mi SSW 15.0 mph - N/A   Mostly Cloudy
10:00 AM 68.0 °F 57.2 °F 68% 29.86 in 30.0 mi SW 12.7 mph 19.6 mph N/A   Mostly Cloudy
11:00 AM 69 °F 58 °F 58% 29.88 in 28 mi SW 10.4 mph - -   Scattered Clouds
11:00 AM 68.0 °F 57.2 °F 68% 29.87 in 30.0 mi SW 10.4 mph 19.6 mph N/A   Mostly Cloudy
12:00 PM 69.8 °F 57.2 °F 64% 29.87 in 30.0 mi SSW 12.7 mph - N/A   Mostly Cloudy
1:00 PM 73.4 °F 57.2 °F 57% 29.87 in 30.0 mi SW 12.7 mph 20.7 mph N/A   Scattered Clouds
2:00 PM 71.6 °F 57.2 °F 60% 29.87 in 30.0 mi SSW 17.3 mph 28.8 mph N/A   Mostly Cloudy
3:00 PM 71.6 °F 55.4 °F 57% 29.88 in 25.0 mi SSW 17.3 mph 23.0 mph N/A   Mostly Cloudy
4:00 PM 73.4 °F 55.4 °F 53% 29.88 in 30.0 mi SSW 16.1 mph 26.5 mph N/A   Mostly Cloudy
5:00 PM 73.4 °F 55.4 °F 53% 29.87 in 20.0 mi SW 16.1 mph - N/A   Mostly Cloudy
6:00 PM 71.6 °F 55.4 °F 57% 29.86 in 20.0 mi WSW 10.4 mph - N/A   Mostly Cloudy
7:00 PM 69.8 °F 57.2 °F 64% 29.86 in 25.0 mi SW 8.1 mph - N/A   Mostly Cloudy
8:00 PM 68.0 °F 57.2 °F 68% 29.86 in 25.0 mi WSW 6.9 mph - N/A   Mostly Cloudy
9:00 PM 68.0 °F 57.2 °F 68% 29.87 in 10.0 mi SW 3.5 mph - N/A   Overcast
10:00 PM 66.2 °F 57.2 °F 73% 29.88 in 10.0 mi WSW 6.9 mph - N/A Rain Light Rain Showers
11:00 PM 65 °F 56 °F 66% 29.88 in 6 mi West 5.8 mph - - Rain Light Rain Showers
11:00 PM 64.4 °F 57.2 °F 77% 29.88 in 6.0 mi West 4.6 mph - N/A Rain Light Rain Showers